TimeEDT,TemperatureF,Dew PointF,Humidity,Sea Level PressureIn,VisibilityMPH,Wind Direction,Wind SpeedMPH,Gust SpeedMPH,PrecipitationIn,Events,Conditions,WindDirDegrees,DateUTC
12:13 AM,69.8,64.4,83,29.94,10.0,Calm,Calm,-,N/A,,Clear,0,2013-07-11 04:13:00
12:33 AM,69.8,64.4,83,29.94,10.0,Calm,Calm,-,N/A,,Clear,0,2013-07-11 04:33:00
12:53 AM,69.8,64.4,83,29.93,10.0,Calm,Calm,-,N/A,,Clear,0,2013-07-11 04:53:00
1:14 AM,69.8,64.4,83,29.93,10.0,Calm,Calm,-,N/A,,Clear,0,2013-07-11 05:14:00
1:34 AM,69.8,64.4,83,29.94,10.0,South,3.5,-,N/A,,Clear,170,2013-07-11 05:34:00
1:54 AM,68.0,64.4,88,29.94,10.0,Calm,Calm,-,N/A,,Clear,0,2013-07-11 05:54:00
2:14 AM,68.0,64.4,88,29.95,10.0,Calm,Calm,-,N/A,,Clear,0,2013-07-11 06:14:00
2:34 AM,68.0,64.4,88,29.95,10.0,Calm,Calm,-,N/A,,Clear,0,2013-07-11 06:34:00
2:54 AM,68.0,64.4,88,29.94,10.0,NE,3.5,-,N/A,,Clear,40,2013-07-11 06:54:00
3:14 AM,68.0,64.4,88,29.94,10.0,Calm,Calm,-,N/A,,Clear,0,2013-07-11 07:14:00
3:34 AM,68.0,64.4,88,29.95,10.0,Calm,Calm,-,N/A,,Clear,0,2013-07-11 07:34:00
3:54 AM,68.0,64.4,88,29.95,10.0,Calm,Calm,-,N/A,,Clear,0,2013-07-11 07:54:00
4:14 AM,68.0,64.4,88,29.95,10.0,Calm,Calm,-,N/A,,Clear,0,2013-07-11 08:14:00
4:34 AM,68.0,64.4,88,29.95,10.0,Calm,Calm,-,N/A,,Clear,0,2013-07-11 08:34:00
4:54 AM,68.0,64.4,88,29.96,10.0,Calm,Calm,-,N/A,,Clear,0,2013-07-11 08:54:00
5:14 AM,68.0,64.4,88,29.96,10.0,Calm,Calm,-,N/A,,Clear,0,2013-07-11 09:14:00
5:34 AM,68.0,64.4,88,29.96,10.0,Calm,Calm,-,N/A,,Clear,0,2013-07-11 09:34:00
5:54 AM,66.2,64.4,94,29.97,10.0,Calm,Calm,-,N/A,,Clear,0,2013-07-11 09:54:00
6:14 AM,66.2,64.4,94,29.98,10.0,Calm,Calm,-,N/A,,Clear,0,2013-07-11 10:14:00
6:34 AM,66.2,64.4,94,29.99,10.0,Calm,Calm,-,N/A,,Clear,0,2013-07-11 10:34:00
6:54 AM,68.0,66.2,94,29.99,10.0,Calm,Calm,-,N/A,,Scattered Clouds,0,2013-07-11 10:54:00
7:14 AM,69.8,64.4,83,30.00,10.0,Calm,Calm,-,N/A,,Mostly Cloudy,0,2013-07-11 11:14:00
7:34 AM,69.8,64.4,83,30.00,10.0,Calm,Calm,-,N/A,,Overcast,0,2013-07-11 11:34:00
7:54 AM,69.8,66.2,88,30.00,10.0,Calm,Calm,-,N/A,,Overcast,0,2013-07-11 11:54:00
8:14 AM,71.6,64.4,78,30.01,10.0,NNW,3.5,-,N/A,,Mostly Cloudy,340,2013-07-11 12:14:00
8:34 AM,73.4,62.6,69,30.01,10.0,NW,4.6,-,N/A,,Overcast,320,2013-07-11 12:34:00
8:54 AM,71.6,62.6,73,30.02,10.0,NNW,4.6,-,N/A,,Overcast,330,2013-07-11 12:54:00
9:14 AM,73.4,62.6,69,30.02,10.0,North,3.5,-,N/A,,Overcast,360,2013-07-11 13:14:00
9:35 AM,73.4,62.6,69,30.02,10.0,NNW,3.5,-,N/A,,Overcast,330,2013-07-11 13:35:00
9:55 AM,75.2,62.6,65,30.02,10.0,NW,3.5,-,N/A,,Scattered Clouds,310,2013-07-11 13:55:00
10:35 AM,75.2,62.6,65,30.01,10.0,NNE,5.8,-,N/A,,Mostly Cloudy,30,2013-07-11 14:35:00
10:55 AM,73.4,62.6,69,30.02,10.0,North,4.6,-,N/A,,Overcast,360,2013-07-11 14:55:00
11:15 AM,75.2,62.6,65,30.01,10.0,NW,5.8,-,N/A,,Overcast,320,2013-07-11 15:15:00
12:35 PM,78.8,62.6,57,30.02,10.0,WNW,3.5,-,N/A,,Scattered Clouds,300,2013-07-11 16:35:00
1:35 PM,78.8,62.6,57,30.00,10.0,North,5.8,-,N/A,,Scattered Clouds,360,2013-07-11 17:35:00
1:55 PM,78.8,64.4,61,30.00,10.0,NNW,3.5,-,N/A,,Clear,330,2013-07-11 17:55:00
2:15 PM,78.8,62.6,57,30.00,10.0,Calm,Calm,-,N/A,,Scattered Clouds,0,2013-07-11 18:15:00
2:35 PM,78.8,62.6,57,29.99,10.0,Calm,Calm,-,N/A,,Scattered Clouds,0,2013-07-11 18:35:00
2:55 PM,78.8,62.6,57,29.99,10.0,Calm,Calm,-,N/A,,Scattered Clouds,0,2013-07-11 18:55:00
3:15 PM,78.8,62.6,57,29.98,10.0,Calm,Calm,-,N/A,,Scattered Clouds,0,2013-07-11 19:15:00
3:35 PM,80.6,62.6,54,29.97,10.0,Calm,Calm,-,N/A,,Mostly Cloudy,0,2013-07-11 19:35:00
3:55 PM,78.8,62.6,57,29.97,10.0,Calm,Calm,-,N/A,,Scattered Clouds,0,2013-07-11 19:55:00
4:15 PM,80.6,62.6,54,29.96,10.0,Calm,Calm,-,N/A,,Scattered Clouds,0,2013-07-11 20:15:00
4:35 PM,80.6,62.6,54,29.96,10.0,Calm,Calm,-,N/A,,Scattered Clouds,0,2013-07-11 20:35:00
4:55 PM,80.6,62.6,54,29.96,10.0,Calm,Calm,-,N/A,,Mostly Cloudy,0,2013-07-11 20:55:00
5:15 PM,82.4,60.8,48,29.96,10.0,WNW,4.6,-,N/A,,Mostly Cloudy,300,2013-07-11 21:15:00
5:35 PM,80.6,60.8,51,29.96,10.0,North,3.5,-,N/A,,Scattered Clouds,360,2013-07-11 21:35:00
5:55 PM,80.6,62.6,54,29.96,10.0,North,5.8,-,N/A,,Mostly Cloudy,10,2013-07-11 21:55:00
6:16 PM,80.6,60.8,51,29.96,10.0,NNW,12.7,-,N/A,,Mostly Cloudy,340,2013-07-11 22:16:00
6:36 PM,80.6,59.0,48,29.97,10.0,North,5.8,-,N/A,,Scattered Clouds,360,2013-07-11 22:36:00
6:56 PM,78.8,59.0,51,29.97,10.0,North,6.9,-,N/A,,Scattered Clouds,360,2013-07-11 22:56:00
7:16 PM,78.8,59.0,51,29.98,10.0,North,11.5,18.4,N/A,,Scattered Clouds,350,2013-07-11 23:16:00
7:36 PM,78.8,59.0,51,29.99,10.0,North,5.8,-,N/A,,Scattered Clouds,10,2013-07-11 23:36:00
7:56 PM,77.0,59.0,54,29.99,10.0,North,5.8,-,N/A,,Clear,360,2013-07-11 23:56:00
8:16 PM,77.0,59.0,54,29.99,10.0,North,9.2,-,N/A,,Clear,360,2013-07-12 00:16:00
8:36 PM,77.0,59.0,54,29.99,10.0,North,5.8,-,N/A,,Clear,10,2013-07-12 00:36:00
8:56 PM,75.2,59.0,57,29.99,10.0,North,5.8,-,N/A,,Clear,10,2013-07-12 00:56:00
9:16 PM,73.4,59.0,61,29.99,10.0,North,5.8,-,N/A,,Scattered Clouds,350,2013-07-12 01:16:00
9:36 PM,73.4,59.0,61,29.99,10.0,NNE,4.6,-,N/A,,Scattered Clouds,20,2013-07-12 01:36:00
9:56 PM,73.4,59.0,61,30.00,10.0,North,3.5,-,N/A,,Clear,350,2013-07-12 01:56:00
10:16 PM,73.4,59.0,61,30.01,10.0,North,5.8,-,N/A,,Scattered Clouds,360,2013-07-12 02:16:00
10:36 PM,73.4,59.0,61,30.02,10.0,NW,5.8,-,N/A,,Mostly Cloudy,320,2013-07-12 02:36:00
10:56 PM,73.4,59.0,61,30.03,10.0,WNW,4.6,-,N/A,,Mostly Cloudy,300,2013-07-12 02:56:00
11:16 PM,71.6,60.8,69,30.04,5.0,Calm,Calm,-,N/A,,Overcast,0,2013-07-12 03:16:00
11:36 PM,68.0,62.6,83,30.06,5.0,South,3.5,-,N/A,,Overcast,190,2013-07-12 03:36:00
11:56 PM,66.2,62.6,88,30.05,4.0,SSE,3.5,-,N/A,,Overcast,150,2013-07-12 03:56:00